Weather History for Lander, WY

Change the Weather History Date:

Monday, July 8, 2013

  Actual Average Record
Temperature  
Mean Temperature 75 °F 70 °F  
Max Temperature 91 °F 86 °F 100 °F (2002)
Min Temperature 58 °F 55 °F 38 °F (1893)
Degree Days  
Heating Degree Days 0 1  
Month to date heating degree days 0 8  
Since 1 June heating degree days 54 134  
Since 1 July heating degree days 0 8  
Cooling Degree Days 10 6  
Month to date cooling degree days 73 43  
Year to date cooling degree days 196 112  
Since 1 June cooling degree days 187 107  
Growing Degree Days 24 (Base 50)    
Moisture  
Dew Point 45 °F    
Average Humidity 41    
Maximum Humidity 67    
Minimum Humidity 15    
Precipitation  
Precipitation 0.03 in 0.02 in 1.93 in (1892)
Month to date precipitation 0.18 0.15  
Year to date precipitation 7.75 7.64  
Snow  
Snow 0.00 in 0.00 in - ()
Month to date snowfall 0.0 0.0  
Since 1 June snowfall 0.0 0.1  
Since 1 July snowfall 0.0 0.0  
Snow Depth 0.00 in    
Sea Level Pressure  
Sea Level Pressure 29.91 in    
Wind  
Wind Speed 8 mph (SSW)    
Max Wind Speed 37 mph    
Max Gust Speed 47 mph    
Visibility 9 miles    
Events Rain    
T = Trace of Precipitation, MM = Missing Value Source: NWS Daily Summary

Daily Weather History Graph

Daily Weather History Graph

Search for Another Location

Airport:

Trip Planner

Search our weather history database for the weather conditions in past years. The results will help you decide how hot, cold, wet, or windy it might be!

Date:

Astronomy

Jul. 08, 2013 Rise Set
Actual Time 5:44 AM MDT 8:54 PM MDT
Civil Twilight 5:10 AM MDT 9:29 PM MDT
Nautical Twilight 4:25 AM MDT 10:13 PM MDT
Astronomical Twilight 3:32 AM MDT 11:07 PM MDT
Moon 6:19 AM MDT (7/8) 8:56 PM MDT (7/8)
Length of Visible Light 16h 19m
Length of Day
15h 10m
Waxing Crescent, 0% of the Moon is Illuminated
Jul 8
Waxing Crescent
Jul 15
First Quarter
Jul 22
Full
Jul 29
Last Quarter
Aug 6
New

Hourly Weather History & Observations

Time (MDT) Temp. Dew Point Humidity Pressure Visibility Wind Dir Wind Speed Gust Speed Precip Events Conditions
12:53 AM 64.0 °F 48.0 °F 56% 29.90 in 10.0 mi NW 6.9 mph - N/A   Clear
1:53 AM 60.1 °F 48.0 °F 64% 29.91 in 10.0 mi ESE 9.2 mph - N/A   Clear
2:53 AM 62.1 °F 48.9 °F 62% 29.89 in 10.0 mi SE 13.8 mph - N/A   Mostly Cloudy
3:53 AM 64.0 °F 46.9 °F 54% 29.89 in 10.0 mi WSW 8.1 mph - N/A   Partly Cloudy
4:53 AM 62.1 °F 48.0 °F 60% 29.93 in 10.0 mi Calm Calm - N/A   Scattered Clouds
5:53 AM 59.0 °F 46.9 °F 64% 29.91 in 10.0 mi West 8.1 mph - N/A   Partly Cloudy
6:53 AM 59.0 °F 48.0 °F 67% 29.94 in 10.0 mi Calm Calm - N/A   Scattered Clouds
7:53 AM 66.9 °F 48.0 °F 51% 29.92 in 10.0 mi Calm Calm - N/A   Clear
8:53 AM 69.1 °F 48.0 °F 47% 29.94 in 10.0 mi Calm Calm - N/A   Clear
9:53 AM 73.0 °F 48.0 °F 41% 29.92 in 10.0 mi Calm Calm - N/A   Clear
10:53 AM 78.1 °F 46.9 °F 33% 29.92 in 10.0 mi Variable 4.6 mph - N/A   Clear
11:53 AM 81.0 °F 46.0 °F 29% 29.91 in 10.0 mi Variable 3.5 mph - N/A   Clear
12:53 PM 84.0 °F 45.0 °F 25% 29.89 in 10.0 mi SSE 5.8 mph - N/A   Clear
1:53 PM 82.9 °F 48.0 °F 29% 29.88 in 10.0 mi SSE 6.9 mph - 0.00 in   Clear
2:53 PM 88.0 °F 42.1 °F 20% 29.85 in 10.0 mi SSE 4.6 mph - N/A   Clear
3:53 PM 89.1 °F 39.9 °F 18% 29.83 in 10.0 mi ESE 5.8 mph - N/A   Partly Cloudy
4:53 PM 88.0 °F 34.0 °F 15% 29.83 in 10.0 mi WNW 12.7 mph 16.1 mph N/A   Clear
5:53 PM 86.0 °F 34.0 °F 16% 29.84 in 8.0 mi WNW 6.9 mph - N/A   Clear
6:53 PM 84.9 °F 39.9 °F 20% 29.84 in 9.0 mi North 6.9 mph - N/A   Clear
7:51 PM 66.2 °F 50.0 °F 56% 30.11 in 2.0 mi SSW 31.1 mph 46.0 mph 0.03 in Rain Light Rain
7:53 PM 66.9 °F 48.9 °F 52% 29.92 in 2.0 mi SSW 31.1 mph 46.0 mph 0.03 in Rain Light Rain
8:00 PM 69.8 °F 46.4 °F 43% 30.10 in 10.0 mi SW 29.9 mph 40.3 mph 0.00 in   Mostly Cloudy
8:53 PM 75.0 °F 43.0 °F 32% 29.91 in 10.0 mi SW 18.4 mph 25.3 mph 0.00 in   Clear
9:53 PM 73.0 °F 44.1 °F 35% 29.92 in 10.0 mi SW 15.0 mph - N/A   Clear
10:53 PM 72.0 °F 39.9 °F 31% 29.92 in 10.0 mi SW 11.5 mph - N/A   Clear
11:53 PM 72.0 °F 37.9 °F 29% 29.91 in 10.0 mi SW 13.8 mph - N/A   Clear